Regional Weather Roundup
Issued by NWS

Home | Current Version | Previous Version | Text Only | Print | Product List | Glossary Off
Versions: 1 2 3 4 5 6 7 8 9 10 11 12 13 14 15 16 17 18 19 20 21 22 23 24 25 26 27 28 29 30 31 32 33 34 35 36 37 38 39 40 41 42 43 44 45 46 47 48 49 50

000
ASUS43 KMPX 251701
RWRMN
WEATHER ROUNDUP FOR MINNESOTA
NATIONAL WEATHER SERVICE TWIN CITIES/CHANHASSEN MN
1200 PM CDT MON MAY 25 2015


NOTE: "FAIR" INDICATES FEW OR NO CLOUDS BELOW 12,000 FEET WITH NO
SIGNIFICANT WEATHER AND/OR OBSTRUCTIONS TO VISIBILITY. N/A MEANS
CURRENT SKY AND/OR WEATHER CONDITIONS ARE NOT AVAILABLE.

MNZ060>063-068>070-251800-
   Twin Cities Metro

CITY           SKY/WX    TMP DP  RH WIND       PRES   REMARKS
TWIN CITIES    CLOUDY    63  57  81 SW17G25   29.70R
ST PAUL        CLOUDY    64  59  83 W9G20     29.71R
CRYSTAL        CLOUDY    62  57  83 SW10      29.69R
BLAINE         CLOUDY    64  61  88 SW13      29.69R
LAKEVILLE      CLOUDY    64  57  77 W10G16    29.71R
EDEN PRAIRIE   CLOUDY    62  57  83 SW14G21   29.70R
SOUTH ST PAUL  CLOUDY    66  59  77 SW14G21   29.70R
LAKE ELMO      CLOUDY    64  59  82 SW15      29.71R
$$
MNZ001>005-007-008-013>017-022>024-027-028-251800-
   Northwest Minnesota

CITY           SKY/WX    TMP DP  RH WIND       PRES   REMARKS
BEMIDJI        LGT RAIN  57  55  91 N7        29.76F
HALLOCK        CLOUDY    70  48  46 N7        29.77S
ROSEAU         CLOUDY    72  48  43 NE8       29.76F
WARROAD        CLOUDY    66  52  59 NE5       29.77F
THIEF RVR FALL CLOUDY    64  52  63 CALM      29.78R
CROOKSTON      CLOUDY    66  54  63 W6        29.77F
FOSSTON        RAIN      61  54  77 NE3       29.80R
DETROIT LAKES  RAIN      55  54  94 NE10G17   29.77R
MOORHEAD       LGT RAIN  61  55  82 NE15      29.78R
PARK RAPIDS    RAIN      58  54  86 NE15G22   29.71S FOG
MAHNOMEN       RAIN      59  54  85 NE10      29.78R
$$
MNZ006-009>011-018-025>026-251800-
   North Central Minnesota

CITY           SKY/WX    TMP DP  RH WIND       PRES   REMARKS
BAUDETTE       CLOUDY    62  52  69 CALM      29.77S
FLAG ISLAND    CLOUDY    64  46  52 CALM      29.76S
INTL FALLS     CLOUDY    65  52  62 SW3       29.78S
WASKISH        DRIZZLE   63  54  72 CALM      29.78S
BIG FORK       LGT RAIN  61  55  82 NE5       29.76S
LONGVILLE      RAIN      57  55  94 NE8       29.69F
GRAND RAPIDS   CLOUDY    57  54  88 NE6       29.71F
CRANE LAKE     DRIZZLE   63  54  72 CALM      29.78S
ORR            CLOUDY    61  54  77 CALM      29.74F
COOK           LGT RAIN  57  57 100 NE5       29.76S
WALKER         HVY RAIN  56  55  94 NE8       29.73S
$$
MNZ012-019>021-037-251800-
   Northeast Minnesota

CITY           SKY/WX    TMP DP  RH WIND       PRES   REMARKS
DULUTH         LGT RAIN  55  53  93 E17G29    29.69S FOG
ELY            LGT RAIN  57  55  94 NE6       29.75S
HIBBING        LGT RAIN  59  54  83 NE8       29.71F
EVELETH        RAIN      57  55  94 NE12G20   29.71F
DULUTH HARBOR  RAIN      48  46  93 E13       29.71S
TWO HARBORS    LGT RAIN  61  55  82 E18G29    29.68R
GRAND MARAIS     N/A     59  56  89 NE15G23   29.71F
G MARAIS ARPRT RAIN      55  52  88 NE12      29.75F
$$
MNZ029>031-032-039>041-046>048-054>057-064-251800-
   West Central Minnesota

CITY           SKY/WX    TMP DP  RH WIND       PRES   REMARKS
FERGUS FALLS   LGT RAIN  57  55  94 NE17G25   29.72S
WHEATON        DRIZZLE   55  54  94 N16G22    29.73S
MORRIS         CLOUDY    61  59  94 N9        29.68R FOG
ALEXANDRIA     LGT RAIN  59  57  93 NE6       29.68S FOG
ELBOW LAKE     LGT RAIN  56  55  96 N17G23    29.69S
WADENA         RAIN      55  55 100 N9G16     29.68S
APPLETON       LGT RAIN  64  57  77 W8        29.69S
BENSON         CLOUDY    63  55  77 W12       29.69R
ORTONVILLE     CLOUDY    61  55  82 N13       29.71R
MADISON        CLOUDY    63  57  82 W9        29.71R
WILLMAR        FAIR      63  59  88 W13       29.71R
$$
MNZ033>034-036-042>043-049>051-058-059-251800-
   Central Minnesota

CITY           SKY/WX    TMP DP  RH WIND       PRES   REMARKS
ST CLOUD       CLOUDY    61  58  90 SW9       29.66S
SAUK CENTRE    CLOUDY    59  57  91 CALM      29.67S
PAYNESVILLE    CLOUDY    60  57  89 S13       29.69R
AITKIN         DRIZZLE   57  52  82 E7        29.66S
PINE RIVER     RAIN      57  57 100 N8        29.73R
BRAINERD       RAIN      57  56  96 VRB7      29.68S FOG
STAPLES        RAIN      57  55  94 NE6       29.67F
LONG PRAIRIE   DRIZZLE   55  55 100 N5        29.67S
LITTLE FALLS   DRIZZLE   57  55  94 S3        29.66S
BUFFALO        CLOUDY    62  56  81 SW9       29.70R
MAPLE LAKE     CLOUDY    64  60  86 S6        29.70R
$$
MNZ037-044-045-052-053-251800-
   East Central Minnesota

CITY           SKY/WX    TMP DP  RH WIND       PRES   REMARKS
PRINCETON      CLOUDY    63  61  94 S6        29.67S
MORA           CLOUDY    55  54  94 CALM      29.68S FOG
CAMBRIDGE      LGT RAIN  63  55  77 SW5       29.65S
RUSH CITY      CLOUDY    60  59  96 CALM      29.67S
MOOSE LAKE     CLOUDY    55  54  94 NE6       29.67S
HINCKLEY       LGT RAIN  59  59 100 SE5       29.67S
CLOQUET        LGT RAIN  54  52  94 E14G22    29.68F
MCGREGOR       CLOUDY    55  55 100 E9        29.68S
$$
MNZ071>073-080-081-089-090-097-098-251800-
   Southwest Minnesota

CITY           SKY/WX    TMP DP  RH WIND       PRES   REMARKS
MONTEVIDEO     CLOUDY    63  63 100 NW9       29.71R
GRANITE FALLS  CLOUDY    64  57  80 W16       29.73R
CANBY          CLOUDY    63  57  82 W13       29.73S
MARSHALL       CLOUDY    64  54  68 W16       29.72S
REDWOOD FALLS  CLOUDY    65  57  75 W15       29.71S
OLIVIA         CLOUDY    59  54  82 W12       29.70S
WINDOM         CLOUDY    64  57  77 SW13G21   29.76R
WORTHINGTON    CLOUDY    63  55  77 SW13      29.77R
JACKSON        CLOUDY    64  59  82 SW16      29.78R
TRACY          CLOUDY    68  59  74 W10G17    29.74R
SLAYTON        CLOUDY    64  59  82 SW17      29.77R
$$
MNZ065>067-074>077-082>085-091>093-251800-
   South Central Minnesota

CITY           SKY/WX    TMP DP  RH WIND       PRES   REMARKS
MANKATO        CLOUDY    64  57  77 W14       29.73S
NEW ULM        CLOUDY    64  59  82 SW13      29.72S
ST JAMES       CLOUDY    66  61  82 SW14G20   29.75R
FAIRMONT       CLOUDY    64  55  72 SW10      29.76R
GLENCOE        CLOUDY    63  60  88 SW9       29.70S
FARIBAULT      CLOUDY    68  61  77 SW14      29.73S
OWATONNA       PTSUNNY   68  61  77 SW17      29.74S
WASECA         CLOUDY    64  59  82 SW16G22   29.76R
ALBERT LEA     MOSUNNY   70  63  78 SW9G20    29.75S
$$
MNZ078>079-086>088-094>096-251800-
   Southeast Minnesota

CITY           SKY/WX    TMP DP  RH WIND       PRES   REMARKS
ROCHESTER      CLOUDY    66  60  81 SW20      29.76S
RED WING       CLOUDY    70  59  68 SW14      29.70R
STANTON        CLOUDY    68  59  72 SW16G24   29.71R
DODGE CENTER   PTSUNNY   68  61  77 SW20      29.74S
WINONA         CLOUDY    70  61  73 W7        29.74S
AUSTIN         CLOUDY    66  61  82 SW15G24   29.76R
PRESTON        PTSUNNY   67  59  74 SW21G28   29.77S
$$
ABBREVIATIONS USED IN REMARKS
   TC - TEMPERATURES IN CELSIUS
  WCI - WIND CHILL INDEX
   HX - HEAT INDEX
  VSB - VISIBILITY
$$


USA.gov is the U.S. government's official web portal to all federal, state and local government web resources and services.